Stündliche Wetter Holoven'ky

Heute, 25 Juni, Freitag

Zeit Temperatur Niederschläge Wind Luftdruck Luftfeuchtigkeit
00:00 +24°C° 0 mm 2 m/S 737 mmHg 89%
01:00 +23°C° 0 mm 2 m/S 737 mmHg 89%
02:00 +23°C° 0 mm 1 m/S 737 mmHg 90%
03:00 +23°C° 0 mm 1 m/S 737 mmHg 88%
04:00 +23°C° 0 mm 1 m/S 737 mmHg 87%
05:00 +23°C° 0 mm 1 m/S 736 mmHg 86%
06:00 +24°C° 0 mm 1 m/S 737 mmHg 79%
07:00 +26°C° 0 mm 2 m/S 737 mmHg 73%
08:00 +27°C° 0 mm 2 m/S 737 mmHg 67%
09:00 +28°C° 0 mm 2 m/S 737 mmHg 62%
10:00 +29°C° 0 mm 2 m/S 737 mmHg 57%
11:00 +29°C° 0 mm 3 m/S 737 mmHg 53%
12:00 +30°C° 0 mm 2 m/S 737 mmHg 52%
13:00 +31°C° 0 mm 2 m/S 737 mmHg 52%
14:00 +31°C° 0 mm 2 m/S 737 mmHg 51%
15:00 +31°C° 0 mm 2 m/S 737 mmHg 56%
16:00 +31°C° 0 mm 2 m/S 736 mmHg 60%
17:00 +31°C° 0 mm 3 m/S 736 mmHg 65%
18:00 +29°C° 0.1 mm 2 m/S 736 mmHg 69%
19:00 +27°C° 0.1 mm 2 m/S 736 mmHg 73%
20:00 +26°C° 0.1 mm 1 m/S 736 mmHg 78%
21:00 +25°C° 0.2 mm 1 m/S 736 mmHg 79%
22:00 +24°C° 0.2 mm 1 m/S 736 mmHg 81%
23:00 +24°C° 0.2 mm 1 m/S 736 mmHg 83%

Morgen, 26 Juni, Samstag

Zeit Temperatur Niederschläge Wind Luftdruck Luftfeuchtigkeit
00:00 +23°C° 0 mm 1 m/S 736 mmHg 84%
01:00 +23°C° 0 mm 1 m/S 735 mmHg 86%
02:00 +22°C° 0 mm 1 m/S 735 mmHg 87%
03:00 +21°C° 0 mm 2 m/S 735 mmHg 88%
04:00 +21°C° 0 mm 2 m/S 735 mmHg 89%
05:00 +21°C° 0 mm 2 m/S 735 mmHg 90%
06:00 +23°C° 0 mm 2 m/S 736 mmHg 86%
07:00 +25°C° 0 mm 2 m/S 736 mmHg 83%
08:00 +26°C° 0 mm 2 m/S 736 mmHg 79%
09:00 +27°C° 0.5 mm 2 m/S 736 mmHg 74%
10:00 +28°C° 0.5 mm 2 m/S 736 mmHg 69%
11:00 +29°C° 0.5 mm 2 m/S 736 mmHg 64%
12:00 +29°C° 0.4 mm 3 m/S 736 mmHg 64%
13:00 +29°C° 0.4 mm 3 m/S 736 mmHg 63%
14:00 +30°C° 0.4 mm 3 m/S 736 mmHg 63%
15:00 +28°C° 0.7 mm 3 m/S 735 mmHg 69%
16:00 +27°C° 0.7 mm 3 m/S 735 mmHg 75%
17:00 +26°C° 0.7 mm 3 m/S 735 mmHg 81%
18:00 +25°C° 0.4 mm 3 m/S 735 mmHg 84%
19:00 +24°C° 0.4 mm 3 m/S 735 mmHg 87%
20:00 +21°C° 0.4 mm 3 m/S 735 mmHg 90%
21:00 +21°C° 1 mm 2 m/S 735 mmHg 92%
22:00 +20°C° 1 mm 2 m/S 735 mmHg 94%
23:00 +20°C° 1 mm 2 m/S 736 mmHg 95%

übermorgen, 27 Juni, Sonntag

Zeit Temperatur Niederschläge Wind Luftdruck Luftfeuchtigkeit
00:00 +20°C° 0.2 mm 2 m/S 735 mmHg 95%
01:00 +20°C° 0.2 mm 2 m/S 735 mmHg 95%
02:00 +20°C° 0.2 mm 2 m/S 735 mmHg 95%
03:00 +19°C° 0 mm 3 m/S 735 mmHg 96%
04:00 +19°C° 0 mm 3 m/S 735 mmHg 96%
05:00 +19°C° 0 mm 4 m/S 735 mmHg 96%
06:00 +19°C° 0 mm 4 m/S 736 mmHg 93%
07:00 +20°C° 0 mm 4 m/S 736 mmHg 90%
08:00 +21°C° 0 mm 5 m/S 736 mmHg 87%
09:00 +22°C° 0 mm 5 m/S 736 mmHg 84%
10:00 +23°C° 0 mm 5 m/S 736 mmHg 81%
11:00 +23°C° 0 mm 5 m/S 736 mmHg 79%
12:00 +23°C° 0 mm 5 m/S 736 mmHg 79%
13:00 +23°C° 0 mm 5 m/S 736 mmHg 79%
14:00 +23°C° 0 mm 5 m/S 736 mmHg 80%
15:00 +23°C° 0.1 mm 5 m/S 736 mmHg 79%
16:00 +25°C° 0.1 mm 4 m/S 736 mmHg 79%
17:00 +25°C° 0.1 mm 4 m/S 736 mmHg 79%
18:00 +23°C° 0.1 mm 4 m/S 736 mmHg 83%
19:00 +22°C° 0.1 mm 4 m/S 736 mmHg 87%
20:00 +21°C° 0.1 mm 3 m/S 736 mmHg 92%
21:00 +20°C° 0 mm 3 m/S 736 mmHg 93%
22:00 +19°C° 0 mm 3 m/S 737 mmHg 94%
23:00 +19°C° 0 mm 3 m/S 737 mmHg 96%

28 Juni, Montag

Zeit Temperatur Niederschläge Wind Luftdruck Luftfeuchtigkeit
00:00 +18°C° 0 mm 3 m/S 737 mmHg 95%
01:00 +18°C° 0 mm 3 m/S 737 mmHg 95%
02:00 +18°C° 0 mm 3 m/S 737 mmHg 95%
03:00 +17°C° 0 mm 3 m/S 737 mmHg 94%
04:00 +17°C° 0 mm 3 m/S 737 mmHg 94%
05:00 +17°C° 0 mm 4 m/S 737 mmHg 93%
06:00 +18°C° 0 mm 4 m/S 737 mmHg 88%
07:00 +20°C° 0 mm 4 m/S 737 mmHg 83%
08:00 +21°C° 0 mm 5 m/S 738 mmHg 77%
09:00 +22°C° 0 mm 5 m/S 738 mmHg 73%
10:00 +23°C° 0 mm 5 m/S 738 mmHg 68%
11:00 +25°C° 0 mm 5 m/S 738 mmHg 63%
12:00 +25°C° 0 mm 5 m/S 738 mmHg 61%
13:00 +26°C° 0 mm 5 m/S 738 mmHg 59%
14:00 +26°C° 0 mm 5 m/S 738 mmHg 57%
15:00 +26°C° 0 mm 5 m/S 738 mmHg 60%
16:00 +25°C° 0 mm 4 m/S 738 mmHg 63%
17:00 +25°C° 0 mm 4 m/S 738 mmHg 67%
18:00 +24°C° 0 mm 3 m/S 738 mmHg 70%
19:00 +21°C° 0 mm 3 m/S 737 mmHg 74%
20:00 +20°C° 0 mm 2 m/S 737 mmHg 77%
21:00 +20°C° 0 mm 2 m/S 737 mmHg 78%
22:00 +19°C° 0 mm 2 m/S 737 mmHg 79%
23:00 +19°C° 0 mm 3 m/S 737 mmHg 80%

29 Juni, Dienstag

Zeit Temperatur Niederschläge Wind Luftdruck Luftfeuchtigkeit
00:00 +18°C° 0 mm 3 m/S 737 mmHg 80%
01:00 +17°C° 0 mm 3 m/S 737 mmHg 81%
02:00 +17°C° 0 mm 3 m/S 737 mmHg 82%
03:00 +16°C° 0 mm 3 m/S 737 mmHg 83%
04:00 +16°C° 0 mm 3 m/S 737 mmHg 84%
05:00 +16°C° 0 mm 3 m/S 737 mmHg 86%
06:00 +17°C° 0 mm 3 m/S 737 mmHg 80%
07:00 +19°C° 0 mm 3 m/S 737 mmHg 75%
08:00 +21°C° 0 mm 3 m/S 738 mmHg 70%
09:00 +22°C° 0 mm 3 m/S 737 mmHg 64%
10:00 +24°C° 0 mm 3 m/S 737 mmHg 58%
11:00 +26°C° 0 mm 3 m/S 737 mmHg 53%
12:00 +26°C° 0 mm 3 m/S 737 mmHg 52%
13:00 +26°C° 0 mm 3 m/S 737 mmHg 50%
14:00 +27°C° 0 mm 4 m/S 737 mmHg 49%
15:00 +26°C° 0 mm 3 m/S 737 mmHg 54%
16:00 +26°C° 0 mm 2 m/S 736 mmHg 60%
17:00 +25°C° 0 mm 2 m/S 736 mmHg 65%
18:00 +24°C° 0 mm 2 m/S 736 mmHg 67%
19:00 +22°C° 0 mm 1 m/S 736 mmHg 70%
20:00 +21°C° 0 mm 1 m/S 736 mmHg 72%
21:00 +21°C° 0 mm 1 m/S 736 mmHg 73%
22:00 +20°C° 0 mm 1 m/S 736 mmHg 74%
23:00 +18°C° 0 mm 2 m/S 736 mmHg 74%

30 Juni, Mittwoch

Zeit Temperatur Niederschläge Wind Luftdruck Luftfeuchtigkeit
00:00 +18°C° 0 mm 2 m/S 735 mmHg 74%
01:00 +18°C° 0 mm 2 m/S 735 mmHg 73%
02:00 +19°C° 0 mm 1 m/S 735 mmHg 73%
03:00 +19°C° 0 mm 1 m/S 735 mmHg 75%
04:00 +19°C° 0 mm 1 m/S 735 mmHg 77%
05:00 +19°C° 0 mm 1 m/S 735 mmHg 78%
06:00 +20°C° 0 mm 1 m/S 735 mmHg 75%
07:00 +22°C° 0 mm 1 m/S 735 mmHg 72%
08:00 +24°C° 0 mm 2 m/S 735 mmHg 69%
09:00 +25°C° 0 mm 2 m/S 735 mmHg 66%
10:00 +26°C° 0 mm 2 m/S 734 mmHg 63%
11:00 +28°C° 0 mm 2 m/S 734 mmHg 60%
12:00 +28°C° 0.1 mm 2 m/S 734 mmHg 59%
13:00 +29°C° 0.1 mm 2 m/S 734 mmHg 58%
14:00 +29°C° 0.1 mm 2 m/S 734 mmHg 58%
15:00 +29°C° 0.3 mm 2 m/S 733 mmHg 59%
16:00 +29°C° 0.3 mm 2 m/S 733 mmHg 61%
17:00 +29°C° 0.3 mm 2 m/S 733 mmHg 63%
18:00 +28°C° 0 mm 2 m/S 733 mmHg 69%
19:00 +26°C° 0 mm 2 m/S 733 mmHg 74%
20:00 +25°C° 0 mm 2 m/S 732 mmHg 80%
21:00 +24°C° 0.1 mm 2 m/S 733 mmHg 82%
22:00 +22°C° 0.1 mm 3 m/S 733 mmHg 84%
23:00 +22°C° 0.1 mm 3 m/S 733 mmHg 86%
Mehr zeigen

Wir brauchen deine Erlaubnis

Meteoprog und unser Service Anbieter werden persönliche Daten aufbewahren, so wie Cookies, Geräte Bezeichnung oder ähnliche Technologien von deinem Gerät und Prozess, so wie Persönliche Daten Inhalte und Werbungen, genauso wie social Media und den Verkehr zu analysieren.

  • Aufbewahrung und/oder Zugang zu deiner Geräte Informationen.

    Cookies, Geräte Bezeichnung oder andere Informationen, können aufbewahrt oder Zugang zu deinem Gerät erhalten, für den Grund, der oben angegeben wird.

  • Personalisierte Werbung und Inhalte, Messungen, Einblick in das Publikum und Produkt Entwicklung.

    Werbungen und Inhalte können personalisiert werden, basierend auf ein Profil. Mehr Daten können besser personalisierte Werbungen und Inhalte hinzufügen. Werbung und Inhalte können gezeigt und gemessen werden. Einblicke über das Publikum, welche die Werbung gesehen haben und den Inhalt, können abgeleitet werden. So wie Daten können genutzt werden, um es zu verbessern oder die Benutzer Erfahrung zu verbessern das System und die Software.

Wenn du “Ich stimme zu” klickst, erlaubst du uns, die Cookies zu benutzen die Geräte Bezeichnung, den Web oder ähnliche Technologien zu benutzen. Deine Settings, können in deinem Gerät bei deinem Browser geändert werden.

Für den bestimmten Zweck, berechtigten Interessen beruhen darauf, mehr als auf den Inhalt. Du kannst mehr darüber in unseren Privaten und Cookie Politik lesen.